Location: Erlenbrunn
(49.1717°N, 7.6142°E)
Time: 05:28:23
(UTC+00:00)

SKYMED 3 - Pass Details

Date: 25 November 2020
Orbit: 621 x 623 km, 97.9° (Epoch: 24 January)

Event Time Altitude Azimuth Distance (km) Brightness Sun altitude
Exits shadow 17:35:26 23° 24° (NNE) 1,359 6.0 -18.7°
Maximum altitude 17:38:08 66° 102° (ESE) 683 4.5 -19.1°
Drops below altitude 10° 17:42:27 10° 185° (S) 1,990 7.3 -19.8°
Sets 17:44:38 0° 188° (S) 2,892 8.2 -20.1°
